Theta_e
310 307 307 308 309 311 311 312 311 309 309 310 309 309 309 308 308 307 309 310 311 311 310 309 308 306 305 299 299 302 306 307 307 310 310 311 312 312 312 310 308 307 305 306
310 310 308 307 308 311 310 310 309 307 307 308 307 307 307 305 305 306 306 307 309 310 310 308 307 306 301 299 301 305 308 308 309 310 310 310 311 313 311 310 307 306 306 306
311 311 309 310 310 311 310 309 306 308 307 306 304 308 307 307 308 309 308 307 308 310 310 308 306 305 299 299 303 307 309 309 310 311 312 312 313 314 311 312 308 307 307 307
310 309 310 310 310 309 311 308 308 309 307 307 304 310 306 304 305 308 308 307 308 309 308 307 306 302 299 301 306 309 309 310 311 312 313 312 312 312 314 314 311 309 309 309
309 309 309 309 309 307 309 307 308 308 308 308 306 304 308 304 307 308 307 307 308 309 307 307 305 299 299 303 308 309 310 311 312 312 313 312 312 313 312 311 312 312 313 316
307 307 307 308 306 307 306 308 307 306 306 307 304 305 309 303 307 306 307 308 308 307 307 306 302 299 299 304 308 309 310 310 311 312 312 313 314 313 312 314 314 316 316 316
308 308 306 306 307 307 306 306 308 309 309 313 307 308 310 307 305 307 305 308 308 308 307 306 301 298 299 304 308 308 309 311 311 312 313 314 314 314 314 315 314 314 318 318
308 309 306 305 307 307 306 306 309 312 310 309 307 310 310 305 305 307 307 307 309 308 307 306 300 298 299 303 308 308 309 311 312 313 314 314 314 314 314 316 317 317 317 317
307 310 305 306 306 306 307 307 305 306 298 306 307 305 304 303 303 306 306 306 308 309 307 305 300 298 299 303 307 308 309 310 311 312 312 314 315 315 315 315 316 316 318 319
307 310 306 306 306 306 306 304 307 304 307 308 307 306 308 307 306 303 304 304 307 307 306 303 300 298 299 303 307 308 309 310 311 312 312 313 314 314 316 315 314 317 319 319
306 308 307 306 306 306 306 306 306 304 305 309 309 313 304 306 305 304 303 306 307 307 306 303 300 298 299 304 306 307 308 310 311 312 312 314 313 314 315 315 315 316 318 316
306 306 306 307 305 304 304 305 304 307 307 304 306 309 305 304 304 304 305 307 307 307 307 304 301 299 299 303 305 307 308 309 310 311 312 314 314 314 315 316 316 316 317 317
306 303 302 305 305 302 305 304 304 303 304 306 308 310 303 303 303 304 304 305 307 307 306 304 302 300 298 302 305 306 308 309 309 310 312 312 313 314 314 314 315 315 316 314
307 304 310 315 315 305 306 305 304 305 304 307 306 308 308 307 305 303 306 306 307 307 307 306 303 301 299 300 304 306 307 307 308 309 310 311 311 312 313 313 314 314 314 313
305 303 303 305 304 305 306 305 303 305 307 309 311 306 310 307 305 304 307 308 307 307 307 306 306 303 300 299 303 306 307 307 307 308 309 310 309 309 309 310 310 310 310 310
305 306 302 305 304 304 303 304 304 304 306 305 306 306 307 305 308 306 306 305 306 307 308 308 307 305 302 300 301 306 307 307 306 306 307 308 308 308 306 306 307 307 308 309
306 302 306 309 302 300 310 304 303 304 302 306 306 309 307 307 304 305 308 309 308 307 309 308 308 307 305 303 300 304 308 307 307 306 306 306 306 305 303 300 300 300 300 299
305 307 310 310 303 320 313 303 304 307 309 305 305 306 305 306 307 307 308 307 307 307 308 308 308 307 307 304 301 301 306 307 307 307 306 305 303 302 300 298 297 296 296 295
306 309 311 312 305 310 311 303 303 306 309 306 306 307 308 307 306 306 306 306 306 306 306 306 307 309 308 307 303 299 303 305 306 306 304 304 301 299 298 297 296 296 296 296
307 309 311 305 313 310 309 304 302 305 310 307 306 307 305 304 305 303 305 305 305 306 306 306 306 307 307 307 305 301 299 303 303 303 302 302 300 298 297 296 296 296 296 296
308 309 311 308 309 302 302 299 302 309 312 305 306 306 303 303 305 306 305 306 306 305 306 306 307 307 307 307 306 303 301 299 303 303 301 301 299 297 296 296 296 295 295 295
309 310 311 306 308 312 299 300 307 307 304 304 305 307 306 306 305 306 305 306 306 306 305 305 306 306 306 306 305 305 303 303 299 301 302 300 298 297 296 296 295 295 294 295
310 309 309 308 310 304 301 302 304 305 302 302 305 305 306 304 306 307 306 306 306 306 306 305 304 305 305 305 305 305 306 303 301 299 301 301 298 297 296 296 295 295 294 294
297 300 304 308 307 303 305 305 305 304 304 302 303 303 304 306 307 307 307 307 306 307 307 306 305 304 305 305 305 305 303 304 302 300 298 300 299 297 297 296 296 295 295 295
294 296 302 301 302 301 304 306 308 305 307 306 306 305 305 306 307 305 306 306 305 305 306 306 304 304 303 304 304 304 304 302 302 301 300 298 299 298 297 296 296 296 295 295
295 300 302 304 295 298 303 305 305 307 308 310 308 308 306 305 305 304 304 304 304 305 305 304 304 304 305 304 303 304 303 303 302 300 299 299 298 298 298 297 296 296 295 295
Wind_Speed
3 4 5 7 5 3 2 2 5 4 0 3 8 17 21 18 23 22 29 29 26 21 15 15 14 14 16 18 21 25 30 29 22 17 21 23 22 21 15 13 12 8 8 12
4 5 4 3 3 4 2 2 5 5 2 2 6 21 16 6 6 12 20 25 28 22 16 14 13 13 14 18 21 25 27 24 16 18 20 22 23 18 15 12 9 2 5 8
5 0 4 4 3 4 2 4 3 5 6 1 8 9 5 1 3 5 6 10 16 24 17 13 11 11 12 16 20 24 23 20 18 19 20 18 19 16 13 13 12 2 4 8
4 1 4 3 3 5 2 2 2 2 5 4 5 5 7 4 7 2 1 6 11 18 15 11 9 9 11 14 19 22 18 17 18 21 21 19 21 19 16 9 8 5 4 17
5 5 3 3 4 6 4 3 2 1 1 3 3 3 8 4 4 1 4 7 13 15 12 10 7 6 9 12 17 20 15 16 18 21 19 17 15 13 14 13 15 18 19 16
1 0 3 4 3 1 5 4 4 3 2 2 3 4 6 3 3 1 2 12 14 15 12 9 6 4 7 9 12 19 18 16 14 17 14 16 15 13 12 14 17 19 13 14
1 2 2 4 5 3 3 4 2 4 2 5 3 1 10 5 6 4 4 14 16 15 12 9 6 4 6 7 10 16 18 15 13 15 15 15 13 12 11 16 15 14 13 19
7 5 8 5 4 6 5 5 4 6 3 4 3 6 6 5 2 7 9 6 16 16 14 11 7 4 4 6 8 12 17 16 13 14 14 12 11 12 12 13 14 15 14 18
6 2 2 2 3 4 5 5 2 5 2 3 3 7 8 5 7 2 6 9 19 19 16 12 9 5 2 5 4 9 15 17 13 10 11 11 11 11 12 11 16 19 16 16
6 3 1 1 4 2 4 4 2 2 2 4 4 5 5 5 7 7 6 13 18 18 17 14 11 6 2 3 2 6 12 14 13 9 9 7 10 9 10 7 12 15 18 15
6 4 1 2 7 8 4 3 0 1 3 4 1 5 5 4 4 9 9 17 20 20 18 15 12 9 5 2 4 3 6 9 14 15 14 11 8 9 9 10 11 8 12 16
5 5 4 7 1 2 4 6 7 4 5 3 1 6 1 3 1 5 10 16 19 19 17 16 14 12 8 5 4 5 6 4 8 15 16 14 13 12 12 12 12 11 9 10
8 2 3 5 3 3 5 6 5 2 2 6 5 5 1 3 5 6 9 12 19 21 20 19 19 16 12 9 7 7 7 6 4 9 15 20 18 19 19 20 20 19 22 26
11 3 6 8 4 5 6 6 9 7 3 3 6 7 6 3 4 4 5 7 16 21 23 22 22 20 16 13 10 11 10 8 8 7 10 15 16 18 20 20 22 24 26 24
5 6 5 2 3 3 4 5 11 12 13 9 2 11 15 10 9 10 9 9 12 20 24 26 26 24 21 18 16 14 14 13 11 11 12 16 19 21 21 22 24 24 24 25
4 3 3 2 2 2 3 7 10 15 12 13 13 24 13 18 12 12 11 11 18 19 22 26 28 28 26 24 21 17 18 17 16 14 14 19 21 20 20 20 20 22 23 24
5 6 3 4 1 2 9 13 15 8 8 12 10 23 4 2 6 10 15 20 24 23 25 28 29 32 32 29 26 25 21 21 20 18 16 19 21 20 21 21 20 19 19 21
5 5 2 3 1 8 3 1 7 18 15 17 11 17 6 3 5 11 21 27 31 29 28 30 26 29 34 32 30 28 26 24 25 22 19 20 21 21 22 22 23 22 20 19
6 9 3 4 4 8 5 5 8 9 11 21 22 24 22 8 10 15 1 7 8 10 14 23 27 25 29 36 35 34 35 32 30 27 23 23 23 24 24 24 24 24 23 22
11 11 7 3 5 10 2 3 6 5 7 9 21 22 8 10 3 4 4 9 10 9 11 10 13 22 27 33 40 40 40 40 38 32 28 26 26 25 25 24 24 24 24 23
6 6 15 6 4 7 7 4 9 6 6 2 21 12 16 6 6 0 5 9 13 11 9 9 8 17 22 26 39 44 44 46 42 36 31 31 30 28 26 25 25 25 26 26
10 9 5 3 3 9 8 6 7 4 4 3 11 18 20 9 2 8 9 13 14 12 10 9 9 11 18 24 31 44 49 44 42 42 38 34 34 33 31 29 28 28 28 28
4 5 5 7 5 2 24 4 14 1 2 1 9 12 12 5 9 15 15 15 13 12 12 11 10 10 15 21 28 36 45 47 45 43 44 40 38 37 35 34 33 33 32 32
15 13 4 4 7 8 15 22 18 14 7 1 6 4 5 9 10 11 15 16 13 12 11 10 11 10 12 17 24 29 35 45 47 46 45 45 43 42 41 39 38 37 37 37
8 10 8 6 7 8 10 21 25 9 5 12 16 17 14 11 9 11 11 10 9 10 12 11 10 9 10 13 17 23 29 36 46 48 47 47 47 47 46 45 44 43 41 40
7 3 4 3 19 18 19 27 1 6 15 17 14 15 12 10 9 9 9 10 9 10 11 10 11 14 13 13 15 17 24 29 37 46 50 49 49 49 50 49 48 46 45 43
Wind_Direction
33 82 205 215 188 118 111 221 264 270 318 272 245 272 277 265 238 239 245 242 236 236 245 246 260 283 308 321 329 341 344 345 343 349 344 341 349 349 3 348 319 274 243 222
39 235 208 143 147 191 215 294 278 282 301 249 320 291 285 260 237 243 252 245 233 224 231 237 255 287 314 326 340 350 351 348 354 353 353 350 350 1 5 6 355 270 199 221
164 14 111 134 136 153 211 187 243 249 324 246 312 291 332 287 289 290 281 242 225 217 221 226 254 291 320 336 350 356 354 357 0 4 356 359 359 15 18 16 20 64 186 191
231 289 156 140 178 136 276 178 162 330 15 272 8 280 303 312 308 289 258 205 197 197 203 215 252 294 329 349 1 358 357 7 13 10 2 8 6 13 26 31 33 63 130 147
231 161 156 155 203 167 220 104 102 68 47 337 357 63 270 334 345 316 207 184 170 179 192 214 246 301 337 0 9 7 2 15 18 6 17 25 24 22 42 60 82 97 120 136
207 157 171 183 77 98 140 79 50 55 54 339 220 131 284 258 213 203 199 199 183 181 193 216 245 309 344 9 15 18 15 13 14 7 29 42 41 44 74 72 89 98 103 131
65 215 165 141 90 39 90 88 323 342 7 226 150 76 247 250 229 203 190 201 191 191 201 214 239 297 338 12 10 11 9 21 38 16 35 37 56 67 70 83 99 124 97 122
160 273 171 181 178 178 181 170 173 215 223 285 109 234 250 210 236 255 231 217 194 197 202 214 231 269 332 17 16 18 15 23 46 45 50 41 71 83 92 98 115 118 116 127
160 251 68 94 129 129 187 205 170 107 51 37 232 279 285 256 264 230 202 191 194 198 200 210 224 239 312 29 30 25 23 30 40 51 48 49 63 93 99 111 121 123 125 127
202 102 321 150 111 85 180 170 93 347 172 253 275 275 246 256 235 216 213 206 200 196 199 206 218 227 240 44 79 40 38 24 49 58 67 77 72 91 105 115 124 125 125 131
148 114 328 126 211 172 145 212 90 154 174 182 259 261 213 244 213 205 220 212 204 198 201 205 213 218 215 111 87 70 59 33 50 57 66 78 82 109 115 103 106 99 114 122
187 120 166 204 279 190 161 192 177 158 217 234 140 274 247 227 312 204 229 219 211 208 206 207 211 220 212 168 119 118 106 90 48 60 70 82 88 97 112 124 129 125 125 120
180 214 82 354 349 334 219 190 168 122 79 209 156 252 167 236 265 252 253 237 215 210 208 210 211 218 212 187 157 153 135 140 103 83 86 89 89 97 99 104 109 115 122 125
148 159 178 188 182 132 196 191 180 157 147 212 229 282 277 271 267 259 249 237 216 217 214 215 216 217 216 200 173 173 156 145 145 140 124 115 113 117 117 117 120 125 129 131
165 196 168 208 136 139 185 180 185 201 210 202 215 232 249 243 240 240 240 233 222 220 221 222 222 217 214 206 186 179 176 170 160 158 148 134 132 125 122 124 124 124 127 127
205 184 117 294 219 246 259 223 194 214 233 249 260 277 268 239 249 263 265 251 238 237 241 236 231 220 217 212 199 183 183 178 175 169 161 150 146 140 137 137 137 138 138 139
180 134 112 256 117 137 279 206 191 198 212 210 202 239 243 148 200 245 266 269 268 259 256 249 240 229 220 215 206 194 188 188 186 184 183 171 166 160 154 151 148 151 151 151
151 146 157 163 137 221 250 133 191 210 227 215 248 249 212 197 245 281 283 283 279 268 257 256 248 237 227 218 212 201 192 191 192 196 198 193 184 178 171 167 162 162 165 163
172 177 182 176 210 306 264 195 163 178 252 217 227 250 256 260 296 290 53 355 338 315 283 263 257 250 231 222 213 207 202 201 202 206 210 208 201 194 187 180 176 174 174 174
197 213 212 146 192 215 251 193 173 131 271 222 204 227 180 146 170 241 356 3 356 309 316 310 253 238 235 224 216 212 209 209 210 213 213 215 213 209 201 195 190 188 185 185
176 190 204 188 221 282 247 148 161 136 247 180 195 173 150 176 214 209 334 8 7 355 343 318 276 242 238 230 220 216 216 217 216 214 214 213 215 216 213 209 205 202 199 197
175 172 193 145 169 259 147 95 180 231 344 178 165 176 178 163 357 332 316 317 321 330 340 325 301 266 238 233 227 221 222 223 220 218 215 216 214 215 215 216 215 213 212 210
205 195 181 189 208 243 188 229 215 79 114 98 149 161 168 187 324 320 322 324 318 313 304 320 313 280 248 239 233 229 228 226 224 221 218 216 217 216 217 218 219 221 221 220
353 6 279 134 244 234 238 238 242 245 285 177 120 185 243 303 305 306 319 324 322 323 304 296 304 299 271 251 239 237 233 230 228 226 223 220 219 218 220 221 222 225 226 227
282 324 307 298 315 318 295 249 254 253 265 275 283 287 290 287 293 296 304 309 325 336 343 294 290 296 293 274 257 243 239 234 230 230 229 226 223 223 223 224 226 227 229 232
199 269 338 332 354 340 325 323 112 170 227 256 308 302 308 286 285 292 297 301 309 318 325 331 304 298 305 289 273 256 244 241 236 232 230 229 228 227 228 228 229 231 233 235